Location: Palombina Nuova
(43.6167°N, 13.4000°E)
Time: 15:37:17
(UTC+00:00)

STARLINK-1066 - Pass Details

Date: 17 February 2020
Orbit: 374 x 385 km, 53.0° (Epoch: 28 March)

Event Time Altitude Azimuth Distance (km) Brightness Sun altitude
Exits shadow 03:52:34 18° 138° (SE) 1,028 5.4 -24.2°
Drops below altitude 10° 03:55:01 10° 87° (E) 1,401 6.8 -23.8°
Enters shadow 04:51:34 -68° 236° (SW) 12,262 10.4 -13.6°
Maximum altitude 05:28:23 52° 329° (NNW) 479 3.1 -6.9°
